Time,TemperatureF,DewpointF,PressureIn,WindDirection,WindDirectionDegrees,WindSpeedMPH,WindSpeedGustMPH,Humidity,HourlyPrecipIn,Conditions,Clouds,dailyrainin,SoftwareType,DateUTC
2013-10-31 00:23:00,40.0,40.0,-100.00,North,0,8.0,11.0,99,0.00,,,-99.99,,2013-10-31 05:23:00,
2013-10-31 01:22:00,38.0,37.0,-100.00,North,5,2.0,3.0,98,0.00,,,-99.99,,2013-10-31 06:22:00,
2013-10-31 02:21:00,33.0,33.0,-100.00,WSW,255,0.0,0.0,99,0.00,,,-99.99,,2013-10-31 07:21:00,
2013-10-31 02:42:00,33.0,33.0,-100.00,SSW,210,0.0,0.0,99,0.00,,,-99.99,,2013-10-31 07:42:00,
2013-10-31 03:22:00,32.0,32.0,-100.00,NE,40,0.0,0.0,99,0.00,,,-99.99,,2013-10-31 08:22:00,
2013-10-31 03:42:00,31.0,31.0,-100.00,SSW,210,1.0,2.0,99,0.00,,,-99.99,,2013-10-31 08:42:00,
2013-10-31 04:21:00,31.0,31.0,-100.00,North,350,1.0,2.0,99,0.00,,,-99.99,,2013-10-31 09:21:00,
2013-10-31 05:42:00,32.0,32.0,-100.00,North,5,0.0,6.0,99,0.00,,,-99.99,,2013-10-31 10:42:00,
2013-10-31 07:42:00,33.0,33.0,-100.00,WSW,255,1.0,4.0,99,0.00,,,-99.99,,2013-10-31 12:42:00,
2013-10-31 08:42:00,33.0,33.0,-100.00,SW,230,2.0,2.0,99,0.00,,,-99.99,,2013-10-31 13:42:00,
2013-10-31 09:42:00,34.0,34.0,-100.00,SSE,155,0.0,2.0,99,0.00,,,-99.99,,2013-10-31 14:42:00,
2013-10-31 11:43:00,43.0,42.0,-100.00,WNW,290,4.0,9.0,95,0.00,,,-99.99,,2013-10-31 16:43:00,
2013-10-31 13:21:00,47.0,42.0,-100.00,NNW,330,9.0,10.0,85,0.00,,,-99.99,,2013-10-31 18:21:00,
2013-10-31 13:42:00,48.0,42.0,-100.00,NW,305,9.0,12.0,80,0.00,,,-99.99,,2013-10-31 18:42:00,
2013-10-31 14:21:00,51.0,41.0,-100.00,NNW,335,9.0,14.0,69,0.00,,,-99.99,,2013-10-31 19:21:00,
2013-10-31 14:42:00,51.0,40.0,-100.00,NNW,335,9.0,14.0,64,0.00,,,-99.99,,2013-10-31 19:42:00,
2013-10-31 15:11:00,53.0,39.0,-100.00,NNW,330,11.0,18.0,60,0.00,,,-99.99,,2013-10-31 20:11:00,
2013-10-31 15:22:00,53.0,40.0,-100.00,North,5,12.0,18.0,60,0.00,,,-99.99,,2013-10-31 20:22:00,
2013-10-31 15:42:00,52.0,40.0,-100.00,North,5,8.0,16.0,61,0.00,,,-99.99,,2013-10-31 20:42:00,
2013-10-31 17:24:00,51.0,40.0,-100.00,North,5,12.0,17.0,66,0.00,,,-99.99,,2013-10-31 22:24:00,
2013-10-31 17:43:00,50.0,39.0,-100.00,North,0,13.0,20.0,66,0.00,,,-99.99,,2013-10-31 22:43:00,
2013-10-31 18:22:00,50.0,38.0,-100.00,North,5,11.0,15.0,63,0.00,,,-99.99,,2013-10-31 23:22:00,
2013-10-31 20:22:00,42.0,37.0,-100.00,NNW,330,6.0,7.0,82,0.00,,,-99.99,,2013-11-01 01:22:00,
2013-10-31 20:42:00,42.0,38.0,-100.00,NW,325,4.0,6.0,84,0.00,,,-99.99,,2013-11-01 01:42:00,
2013-10-31 21:22:00,43.0,39.0,-100.00,NW,315,4.0,6.0,87,0.00,,,-99.99,,2013-11-01 02:22:00,
2013-10-31 21:42:00,44.0,40.0,-100.00,NNW,340,7.0,8.0,86,0.00,,,-99.99,,2013-11-01 02:42:00,
2013-10-31 22:22:00,42.0,38.0,-100.00,NNW,340,4.0,6.0,87,0.00,,,-99.99,,2013-11-01 03:22:00,
2013-10-31 22:44:00,42.0,39.0,-100.00,North,350,6.0,8.0,88,0.00,,,-99.99,,2013-11-01 03:44:00,
2013-10-31 23:43:00,42.0,39.0,-100.00,NW,325,3.0,6.0,87,0.00,,,-99.99,,2013-11-01 04:43:00,